Location: *
(48.8780°N, 19.2358°E)
Time: 01:58:26
(UTC+00:00)

STARLINK-79 - Pass Details

Date: 18 October 2019
Orbit: 548 x 551 km, 53.0° (Epoch: 13 November)

Event Time Altitude Azimuth Distance (km) Brightness Sun altitude
Rises 18:07:46 0° 279° (W) 2,717 8.6 -23.6°
Reaches altitude 10° 18:10:04 10° 285° (WNW) 1,824 7.4 -23.9°
Enters shadow 18:13:53 46° 351° (N) 749 4.3 -24.5°
